Location: �clusier
(49.9361°N, 2.7869°E)
Time: 04:29:52
(UTC+00:00)

Cosmos 2016 Rocket - Pass Details

Date: 29 October 2021
Orbit: 947 x 1000 km, 83.0° (Epoch: 05 December)

Event Time Altitude Azimuth Distance (km) Brightness Sun altitude
Rises 04:11:36 0° 359° (N) 3,630 7.1 -23.3°
Reaches altitude 10° 04:15:19 10° 22° (NNE) 2,681 6.6 -22.7°
Maximum altitude 04:18:48 15° 57° (ENE) 2,308 6.7 -22.1°
Drops below altitude 10° 04:22:17 10° 92° (E) 2,681 7.5 -21.6°
Sets 04:25:59 0° 115° (ESE) 3,629 8.0 -21.0°
